User: anonymous   Login
Location: Unspecified
(0.0000°N, 0.0000°E)
Time: 04:15:06
(UTC+00:00)
Language:

IGS 7A - Orbit

View from above orbital plane
View from above orbital plane
View from above satellite
View from above satellite

Ground track
Ground track

The orbit data is extracted from the following two-line orbital elements,

1 37954U 11075A   19274.84760033 0.00000000  00000-0  00000-0 0    09
2 37954  97.4572 350.1598 0002397 355.5862   4.4136 15.17639409    03
Epoch (UTC): 01 October 2019 20:20:32
Eccentricity: 0.0002397
inclination: 97.4572°
perigee height: 511 km
apogee height: 514 km
right ascension of ascending node: 350.1598°
argument of perigee: 355.5862°
revolutions per day: 15.17639409
mean anomaly at epoch: 4.4136°
orbit number at epoch: 0

The dashed part of the orbit path shows where the satellite is in the earth's shadow,  

DLR